Retour au catalogue

HULIANWANG DIGUI-14

ActifCommunicationsLEO
NORAD 62974·PAYLOAD·🇨🇳 China

Lancé Feb 11, 2025 depuis Wenchang Space Launch Site

Loading…

Prochains Passages (prochaines 24 heures)

TLE

FraisSource: Space-Track

Époque: Sep 14, 2026, 14:10 UTC

1 62974U 25030D   26257.59031205 -.00000094  00000-0  65722-4 0  9995
2 62974  50.0024 274.9724 0000319  19.2460 340.8424 13.29327081 77758

Suivez HULIANWANG DIGUI-14 en temps réel avec AllMySat

Download on the App Store